Tracking 32577 objects as of 15-Dec-2025
HD Live streaming from Space Station
objects crossing your sky now

NOAA 16 DEB

Track NOAA 16 DEB now!
10-day predictions


NORAD ID: 41215
Int'l Code: 2000-055DU
Perigee: 725.0 km
Apogee: 757.2 km
Inclination: 98.8 °
Period: 99.5 minutes
Semi major axis: 7112 km
RCS: Unknown
Launch date: September 21, 2000
Source: United States (US)
Launch site: AIR FORCE WESTERN TEST RANGE (AFWTR)

Note: This is SATELLITE DEBRIS
Your satellite tracking list
Your tracking list is empty




NASA's NSSDC Master Catalog

Two Line Element Set (TLE):
1 41215U 00055DU  25346.81289065  .00013744  00000-0  37370-2 0  9993
2 41215  98.8071 115.6487 0022579 274.5864  85.2749 14.47458644520505
Source of the keplerian elements: AFSPC